Weather in Parnassus

Greece     38°38′40″N   22°31′52″E
temp.,
°C
wind,
m/s
gust,
m/s
humid.,
%
clouds,
%
prec.,
mm/h
press.,
hPa
HPBL,
m
12 may, wed
wed1200:00+13s11705 0.0 101411
03:00+12sw11670 0.0 101310
06:00+11sw11662 0.0 101210
09:00+17ene215356 0.0 1011300
12:00+22ene334199 0.0 1009843
15:00+24ne3339100 0.0 10081004
18:00+23ene12370 0.0 1007804
21:00+16sw22530 0.0 100723
13 may, thu
thu1300:00+13wsw33600 0.0 100936
03:00+12wsw33700 0.0 100833
06:00+12wsw326347 0.0 100825
09:00+18nne11450 0.0 1008428
12:00+23ne33360 0.0 10081401
15:00+25ene33350 0.0 10061568
18:00+24ene12362 0.0 10061243
21:00+16sw33544 0.0 100952
14 may, fri
fri1400:00+13sw43650 0.0 101059
03:00+12sw33710 0.0 101046
06:00+11wsw33720 0.0 101135
09:00+17w12470 0.0 1012508
12:00+23nne24310 0.0 10121923
15:00+25nne242876 0.0 10112355
18:00+24n1229100 0.0 10112000
21:00+17wsw3348100 0.0 101338
15 may, sat
sat1500:00+14wsw335551 0.0 101345
03:00+13sw324698 0.0 101322
06:00+13sw2237100 0.0 101221
09:00+19ssw123280 0.0 1011339
12:00+23ssw1730100 0.0 10112448
15:00+22sw2933100 0.0 10092171
18:00+20ssw273881 0.0 10081915
21:00+14sw33620 0.0 100837
16 may, sun
sun1600:00+12wsw33740 0.0 100844
03:00+11wsw33651 0.0 100841
06:00+10wsw32714 0.0 100731
09:00+16nw22511 0.0 1007642
12:00+22n363350 0.0 10062271
15:00+20wnw134098 0.1 10051466
18:00+21nnw233753 0.1 10051830
21:00+14wnw11653 0.1 100714